Find Starlink 3673

NORAD ID: 52093 Int'l Des: 2022-029 Owner: SPXS Country: US Constellation: starlink operational
LEOCIRCULAR

当前视图

正在加载3D地球...

About Starlink 3673

Starlink 3673 (NORAD 52093) is a starlink constellation satellite (v1.5) launched Mar 19, 2022 by SPXS of US. It operates in LEO, CIRCULAR orbit with a mass of 297.00 kg.

关于 Starlink 3673

正在加载描述...

即将过境

Passes for default location (London). Set your location on the main map for personalized predictions.

高度历史

Loading altitude history...

两行轨道根数

1 52093U 22029F 26171.41668980 .00114637 00000-0 48904-2 0 9992
2 52093 53.1610 347.4373 0002018 133.3690 103.6746 15.22028056 5827
Epoch: Jun 20, 2026 • Age: 40 hours

当前状态

高度 512.4 km
速度 7.61 km/s
星下点 -38.14°S, 8.07°E
发射日期 Mar 19, 2022
运行时间 4.2 years
类型 internet

技术详情

分类 Payload
质量 297.00 kg
干质量 275.00 kg
总质量 297.00 kg
长度 0.20 m
直径 2.80 m
跨度 9.00 m
形状 Box + pan
制造商 SPXS
平台类型 Starlink
阶段状态 In Orbit
所有者/国家 SPXS/US

Most Searched